This demonstration page uses our WeatherBlox Daily Observations layout. Learn more.

Left ArrowRight Arrow

41.55636, -103.73856

Hourly Observations for June 3, 2016

Temp ( °F °C ) Dew Point ( °F °C ) Humidity (%) Winds ( mph kmh ) Pressure ( in mb ) Visibility ( mi km ) Precip ( " mm )
12:53 am 00:53 Clear 70 21.1 39 3.9 32 32 WNW 9 15 29.75 1008 10 16 0.00 0.00
1:53 am 01:53 Clear 67 19.4 39 3.9 36 36 NW 9 15 29.75 1008 10 16 0.00 0.00
2:53 am 02:53 Clear 61 16.1 40 4.4 46 46 WNW 13 20 29.80 1009 10 16 0.00 0.00
3:53 am 03:53 Clear 61 16.1 41 5 48 48 WNW 9 15 29.83 1010 10 16 0.00 0.00
4:53 am 04:53 Clear 62 16.7 44 6.7 52 52 WNW 9 15 29.87 1012 10 16 0.00 0.00
5:53 am 05:53 Sunny 60 15.6 45 7.2 58 58 W 6 9 29.91 1013 10 16 0.00 0.00
6:53 am 06:53 Sunny 61 16.1 47 8.3 60 60 NNW 6 9 29.95 1014 10 16 0.00 0.00
7:53 am 07:53 Sunny 65 18.3 48 8.9 54 54 WNW 13 20 29.99 1016 10 16 0.00 0.00
8:53 am 08:53 Sunny 69 20.6 49 9.4 49 49 WNW 8 13 30.00 1016 10 16 0.00 0.00
9:53 am 09:53 Sunny 73 22.8 46 7.8 38 38 NNW 7 11 30.00 1016 10 16 0.00 0.00
10:53 am 10:53 Sunny 77 25 43 6.1 30 30 NW 16 26 29.99 1016 10 16 0.00 0.00
11:53 am 11:53 Sunny 78 25.6 43 6.1 29 29 NNW 13 20 29.98 1015 10 16 0.00 0.00
12:53 pm 12:53 Sunny 78 25.6 43 6.1 29 29 NW 7 11 29.99 1016 10 16 0.00 0.00
1:53 pm 13:53 Partly Cloudy 79 26.1 45 7.2 30 30 NNW 18 30 29.99 1016 10 16 0.00 0.00
2:53 pm 14:53 Partly Cloudy 83 28.3 46 7.8 27 27 NW 14 22 29.98 1015 10 16 0.00 0.00
3:53 pm 15:53 Partly Cloudy 81 27.2 44 6.7 27 27 NW 17 28 29.99 1016 10 16 0.00 0.00
4:53 pm 16:53 Mostly Cloudy 81 27.2 40 4.4 23 23 N 13 20 29.99 1016 10 16 0.00 0.00
5:53 pm 17:53 Sunny 76 24.4 39 3.9 26 26 NNW 15 24 30.01 1016 10 16 0.00 0.00
6:53 pm 18:53 Mostly Sunny 76 24.4 39 3.9 26 26 N 14 22 30.02 1017 10 16 0.00 0.00
7:53 pm 19:53 Sunny 74 23.3 39 3.9 28 28 N 9 15 30.03 1017 10 16 0.00 0.00
8:53 pm 20:53 Clear 64 17.8 41 5 43 43 N 7 11 30.06 1018 10 16 0.00 0.00
9:53 pm 21:53 Clear 62 16.7 40 4.4 44 44 N 5 7 30.09 1019 10 16 0.00 0.00
10:53 pm 22:53 Clear 57 13.9 40 4.4 53 53 NNE 9 15 30.11 1020 10 16 0.00 0.00
11:53 pm 23:53 Clear 57 13.9 39 3.9 51 51 NNE 8 13 30.13 1020 10 16 0.00 0.00

Powered by AerisWeather